| time (UTC) | temp F | wind direction | speed knots | gust knots | rain 1hr in | rain 24hr in | rain mn in | humidity % | barometer mb |
| 20260504040120 | 55 | 242 | 3.5 | 7.8 | 0.00 | 0.00 | 0.00 | 71 | 1006.7 |
| 20260504034536 | 56 | 218 | 4.3 | 8.7 | 0.00 | 0.00 | 0.00 | 69 | 1006.8 |
| 20260504033011 | 57 | 215 | 3.5 | 7.0 | 0.00 | 0.00 | 0.00 | 66 | 1006.9 |
| 20260504031548 | 58 | 238 | 3.5 | 7.0 | 0.00 | 0.00 | 0.00 | 67 | 1007.1 |
| 20260504030024 | 57 | 209 | 1.7 | 5.2 | 0.00 | 0.00 | 0.00 | 68 | 1007.1 |
| 20260504024550 | 57 | 215 | 3.5 | 6.1 | 0.00 | 0.00 | 0.00 | 68 | 1007.2 |
| 20260504023024 | 58 | 234 | 2.6 | 7.0 | 0.00 | 0.00 | 0.00 | 66 | 1007.2 |
| 20260504021549 | 58 | 213 | 2.6 | 6.1 | 0.00 | 0.00 | 0.00 | 65 | 1007.2 |
| 20260504020051 | 59 | 206 | 3.5 | 7.0 | 0.00 | 0.00 | 0.00 | 63 | 1007.0 |
| 20260504014516 | 61 | 245 | 3.5 | 6.1 | 0.00 | 0.00 | 0.00 | 60 | 1006.8 |
| 20260504013106 | 61 | 226 | 2.6 | 5.2 | 0.00 | 0.00 | 0.00 | 58 | 1006.8 |
| 20260504011522 | 62 | 207 | 2.6 | 5.2 | 0.00 | 0.00 | 0.00 | 56 | 1006.8 |
| 20260504010057 | 63 | 234 | 2.6 | 6.1 | 0.00 | 0.00 | 0.00 | 54 | 1006.8 |
| 20260504004509 | 64 | 202 | 2.6 | 9.6 | 0.00 | 0.00 | 0.00 | 52 | 1006.9 |
| 20260504003039 | 65 | 252 | 3.5 | 8.7 | 0.00 | 0.00 | 0.00 | 51 | 1006.9 |
| 20260504001503 | 66 | 227 | 2.6 | 8.7 | 0.00 | 0.00 | 0.00 | 49 | 1006.9 |
| 20260504000037 | 66 | 293 | 2.6 | 9.6 | 0.00 | 0.00 | 0.00 | 48 | 1007.0 |
| 20260503234506 | 67 | 234 | 3.5 | 11.3 | 0.00 | 0.00 | 0.00 | 46 | 1007.0 |
| 20260503233041 | 67 | 257 | 5.2 | 13.0 | 0.00 | 0.00 | 0.00 | 46 | 1007.0 |
| 20260503231555 | 68 | 297 | 3.5 | 15.6 | 0.00 | 0.00 | 0.00 | 46 | 1007.2 |
| 20260503230023 | 68 | 237 | 4.3 | 15.6 | 0.00 | 0.00 | 0.00 | 46 | 1007.2 |
| 20260503224543 | 67 | 217 | 8.7 | 18.2 | 0.00 | 0.00 | 0.00 | 46 | 1007.5 |
| 20260503223001 | 66 | 211 | 6.1 | 13.9 | 0.00 | 0.00 | 0.00 | 46 | 1007.6 |
| 20260503221539 | 66 | 205 | 9.6 | 20.9 | 0.00 | 0.00 | 0.00 | 45 | 1007.6 |
| 20260503220003 | 67 | 201 | 7.8 | 17.4 | 0.00 | 0.00 | 0.00 | 44 | 1007.7 |
| 20260503214525 | 67 | 209 | 10.4 | 17.4 | 0.00 | 0.00 | 0.00 | 46 | 1007.8 |
| 20260503213053 | 66 | 244 | 9.6 | 22.6 | 0.00 | 0.00 | 0.00 | 45 | 1008.0 |
| 20260503211507 | 65 | 202 | 11.3 | 19.1 | 0.00 | 0.00 | 0.00 | 46 | 1008.0 |
| 20260503210038 | 65 | 232 | 9.6 | 19.1 | 0.00 | 0.00 | 0.00 | 46 | 1008.4 |
| 20260503204515 | 66 | 217 | 13.0 | 23.5 | 0.00 | 0.00 | 0.00 | 44 | 1008.5 |
| 20260503203026 | 65 | 223 | 12.2 | 21.7 | 0.00 | 0.00 | 0.00 | 44 | 1008.9 |
| 20260503201546 | 64 | 290 | 11.3 | 22.6 | 0.00 | 0.00 | 0.00 | 44 | 1009.1 |
| 20260503200104 | 64 | 242 | 9.6 | 26.1 | 0.00 | 0.00 | 0.00 | 44 | 1009.3 |
| 20260503194604 | 63 | 246 | 13.9 | 26.1 | 0.00 | 0.00 | 0.00 | 44 | 1009.6 |
| 20260503193033 | 63 | 236 | 11.3 | 20.0 | 0.00 | 0.00 | 0.00 | 44 | 1009.9 |
| 20260503191555 | 63 | 237 | 10.4 | 22.6 | 0.00 | 0.00 | 0.00 | 45 | 1009.9 |
| 20260503190020 | 63 | 205 | 11.3 | 22.6 | 0.00 | 0.00 | 0.00 | 44 | 1010.2 |
| 20260503184541 | 62 | 194 | 15.6 | 22.6 | 0.00 | 0.00 | 0.00 | 45 | 1010.6 |
| 20260503183059 | 61 | 221 | 11.3 | 22.6 | 0.00 | 0.00 | 0.00 | 50 | 1010.9 |
| 20260503181510 | 59 | 205 | 8.7 | 18.2 | 0.00 | 0.00 | 0.00 | 51 | 1011.4 |
| 20260503180049 | 59 | 160 | 6.1 | 19.1 | 0.00 | 0.00 | 0.00 | 55 | 1011.9 |
| 20260503174559 | 58 | 232 | 7.8 | 14.8 | 0.00 | 0.00 | 0.00 | 56 | 1012.5 |
| 20260503174500 | 58 | 175 | 7.8 | 14.8 | 0.00 | 0.00 | 0.00 | 55 | 1012.4 |
| 20260503173026 | 57 | 237 | 5.2 | 11.3 | 0.00 | 0.00 | 0.00 | 59 | 1013.0 |
| 20260503171538 | 56 | 252 | 4.3 | 9.6 | 0.00 | 0.00 | 0.00 | 60 | 1013.5 |
| 20260503170113 | 56 | 214 | 6.1 | 9.6 | 0.00 | 0.00 | 0.00 | 59 | 1013.7 |
| 20260503081532 | 43 | 246 | 4.3 | 7.8 | 0.00 | 0.00 | 0.00 | 69 | 1016.0 |
| 20260503080104 | 43 | 239 | 3.5 | 7.0 | 0.00 | 0.00 | 0.00 | 69 | 1016.0 |
| 20260503071525 | 43 | 246 | 3.5 | 7.8 | 0.00 | 0.00 | 0.00 | 68 | 1016.2 |
| 20260503060105 | 43 | 237 | 3.5 | 7.0 | 0.00 | 0.00 | 0.00 | 68 | 1016.9 |
| 20260503054621 | 43 | 231 | 4.3 | 7.0 | 0.00 | 0.00 | 0.00 | 68 | 1017.0 |
| 20260503054501 | 43 | 236 | 4.3 | 7.0 | 0.00 | 0.00 | 0.00 | 68 | 1017.0 |
| 20260503053023 | 43 | 215 | 3.5 | 6.1 | 0.00 | 0.00 | 0.00 | 67 | 1017.1 |
| 20260503051547 | 43 | 252 | 3.5 | 6.1 | 0.00 | 0.00 | 0.00 | 66 | 1017.2 |
| 20260503050013 | 44 | 252 | 4.3 | 7.8 | 0.00 | 0.00 | 0.00 | 65 | 1017.3 |
| 20260503044542 | 44 | 233 | 4.3 | 7.0 | 0.00 | 0.00 | 0.00 | 65 | 1017.3 |
| 20260503043106 | 44 | 212 | 3.5 | 7.0 | 0.00 | 0.00 | 0.00 | 65 | 1017.3 |
| 20260503041524 | 45 | 227 | 3.5 | 7.0 | 0.00 | 0.00 | 0.00 | 63 | 1017.4 |